Location: Csohesd
(46.2500°N, 22.6167°E)
Time: 12:07:02
(UTC+00:00)

Cosmos 371 Rocket - Pass Details

Date: 21 October 2021
Orbit: 684 x 699 km, 74.0° (Epoch: 07 December)

Event Time Altitude Azimuth Distance (km) Brightness Sun altitude
Rises 16:06:13 0° 167° (SSE) 3,053 6.6 -6.5°
Reaches altitude 10° 16:08:50 10° 154° (SSE) 2,144 5.7 -7.0°
Maximum altitude 16:12:46 25° 100° (E) 1,382 4.3 -7.6°
Drops below altitude 10° 16:16:43 10° 45° (NE) 2,165 5.4 -8.3°
Sets 16:19:22 0° 33° (NNE) 3,089 6.3 -8.8°
